When you browse on this site, cookies collect data to enhance your experience and personalize the content and advertising you see.
Visit our Privacy Policy to learn more. By continuing to use the site, you agree to this use of cookies and data.

Météo par heure à Tykha

Ce jour, 9 Août, Dimanche

Heure Température Précipitation Vent Pression Humidité
00:00 +18°C° 0 mm 1 m/s 710 mmHg 95%
01:00 +18°C° 0 mm 1 m/s 710 mmHg 95%
02:00 +16°C° 0 mm 1 m/s 710 mmHg 94%
03:00 +16°C° 0 mm 1 m/s 710 mmHg 95%
04:00 +16°C° 0 mm 1 m/s 709 mmHg 95%
05:00 +15°C° 0 mm 1 m/s 709 mmHg 95%
06:00 +18°C° 0 mm 1 m/s 709 mmHg 93%
07:00 +19°C° 0 mm 1 m/s 710 mmHg 90%
08:00 +21°C° 0 mm 1 m/s 710 mmHg 87%
09:00 +22°C° 0 mm 1 m/s 710 mmHg 79%
10:00 +24°C° 0 mm 2 m/s 710 mmHg 71%
11:00 +25°C° 0 mm 3 m/s 710 mmHg 63%
12:00 +26°C° 0 mm 3 m/s 710 mmHg 61%
13:00 +26°C° 0 mm 3 m/s 710 mmHg 59%
14:00 +27°C° 0 mm 3 m/s 710 mmHg 56%
15:00 +26°C° 0.2 mm 3 m/s 709 mmHg 61%
16:00 +25°C° 0.2 mm 3 m/s 709 mmHg 66%
17:00 +25°C° 0.2 mm 3 m/s 709 mmHg 71%
18:00 +23°C° 0.3 mm 2 m/s 709 mmHg 78%
19:00 +21°C° 0.3 mm 1 m/s 708 mmHg 85%
20:00 +20°C° 0.3 mm 1 m/s 708 mmHg 92%
21:00 +19°C° 0 mm 1 m/s 708 mmHg 93%
22:00 +17°C° 0 mm 0 m/s 708 mmHg 94%
23:00 +16°C° 0 mm 0 m/s 708 mmHg 95%

Demain, 10 Août, Lundi

Heure Température Précipitation Vent Pression Humidité
00:00 +16°C° 0 mm 0 m/s 708 mmHg 95%
01:00 +16°C° 0 mm 0 m/s 708 mmHg 95%
02:00 +15°C° 0 mm 0 m/s 708 mmHg 96%
03:00 +15°C° 0 mm 0 m/s 708 mmHg 96%
04:00 +15°C° 0 mm 0 m/s 707 mmHg 96%
05:00 +15°C° 0 mm 0 m/s 707 mmHg 96%
06:00 +16°C° 0 mm 0 m/s 708 mmHg 94%
07:00 +17°C° 0 mm 0 m/s 708 mmHg 91%
08:00 +21°C° 0 mm 1 m/s 708 mmHg 88%
09:00 +22°C° 0.1 mm 1 m/s 708 mmHg 80%
10:00 +24°C° 0.1 mm 1 m/s 709 mmHg 72%
11:00 +25°C° 0.1 mm 2 m/s 709 mmHg 64%
12:00 +25°C° 0.5 mm 2 m/s 708 mmHg 65%
13:00 +25°C° 0.5 mm 2 m/s 708 mmHg 66%
14:00 +25°C° 0.5 mm 3 m/s 708 mmHg 67%
15:00 +25°C° 0.7 mm 2 m/s 708 mmHg 69%
16:00 +25°C° 0.7 mm 2 m/s 708 mmHg 70%
17:00 +25°C° 0.7 mm 2 m/s 708 mmHg 72%
18:00 +23°C° 0.7 mm 2 m/s 707 mmHg 78%
19:00 +21°C° 0.7 mm 1 m/s 707 mmHg 84%
20:00 +20°C° 0.7 mm 1 m/s 707 mmHg 90%
21:00 +19°C° 0.2 mm 1 m/s 707 mmHg 91%
22:00 +18°C° 0.2 mm 1 m/s 707 mmHg 93%
23:00 +16°C° 0.2 mm 0 m/s 707 mmHg 94%

Après-demain, 11 Août, Mardi

Heure Température Précipitation Vent Pression Humidité
00:00 +15°C° 0 mm 0 m/s 707 mmHg 94%
01:00 +15°C° 0 mm 0 m/s 707 mmHg 95%
02:00 +15°C° 0 mm 0 m/s 707 mmHg 95%
03:00 +14°C° 0 mm 0 m/s 707 mmHg 95%
04:00 +14°C° 0 mm 0 m/s 707 mmHg 96%
05:00 +14°C° 0 mm 0 m/s 707 mmHg 96%
06:00 +15°C° 0 mm 0 m/s 708 mmHg 94%
07:00 +18°C° 0 mm 1 m/s 708 mmHg 92%
08:00 +20°C° 0 mm 1 m/s 708 mmHg 90%
09:00 +21°C° 0 mm 1 m/s 708 mmHg 81%
10:00 +23°C° 0 mm 2 m/s 709 mmHg 73%
11:00 +24°C° 0 mm 2 m/s 709 mmHg 64%
12:00 +25°C° 0 mm 3 m/s 709 mmHg 62%
13:00 +25°C° 0 mm 3 m/s 709 mmHg 60%
14:00 +26°C° 0 mm 3 m/s 709 mmHg 59%
15:00 +25°C° 0.3 mm 3 m/s 709 mmHg 64%
16:00 +25°C° 0.3 mm 3 m/s 708 mmHg 69%
17:00 +24°C° 0.3 mm 2 m/s 708 mmHg 74%
18:00 +21°C° 0.2 mm 2 m/s 708 mmHg 79%
19:00 +20°C° 0.2 mm 2 m/s 708 mmHg 85%
20:00 +19°C° 0.2 mm 1 m/s 708 mmHg 91%
21:00 +18°C° 0.1 mm 1 m/s 708 mmHg 92%
22:00 +18°C° 0.1 mm 1 m/s 708 mmHg 93%
23:00 +15°C° 0.1 mm 0 m/s 708 mmHg 94%

12 Août, Mercredi

Heure Température Précipitation Vent Pression Humidité
00:00 +15°C° 0 mm 0 m/s 708 mmHg 94%
01:00 +14°C° 0 mm 0 m/s 708 mmHg 95%
02:00 +14°C° 0 mm 0 m/s 708 mmHg 95%
03:00 +15°C° 0 mm 1 m/s 708 mmHg 96%
04:00 +14°C° 0 mm 1 m/s 708 mmHg 96%
05:00 +14°C° 0 mm 1 m/s 708 mmHg 97%
06:00 +15°C° 0 mm 1 m/s 708 mmHg 95%
07:00 +16°C° 0 mm 1 m/s 709 mmHg 92%
08:00 +18°C° 0 mm 1 m/s 709 mmHg 90%
09:00 +18°C° 0 mm 2 m/s 709 mmHg 84%
10:00 +20°C° 0 mm 3 m/s 710 mmHg 77%
11:00 +21°C° 0 mm 3 m/s 710 mmHg 70%
12:00 +21°C° 0 mm 3 m/s 710 mmHg 66%
13:00 +22°C° 0 mm 4 m/s 710 mmHg 63%
14:00 +23°C° 0 mm 4 m/s 710 mmHg 59%
15:00 +22°C° 0 mm 4 m/s 710 mmHg 61%
16:00 +22°C° 0 mm 4 m/s 710 mmHg 63%
17:00 +21°C° 0 mm 4 m/s 710 mmHg 65%
18:00 +19°C° 0 mm 4 m/s 710 mmHg 74%
19:00 +17°C° 0 mm 3 m/s 710 mmHg 82%
20:00 +14°C° 0 mm 3 m/s 709 mmHg 91%
21:00 +15°C° 0 mm 2 m/s 709 mmHg 92%
22:00 +14°C° 0 mm 2 m/s 709 mmHg 93%
23:00 +13°C° 0 mm 2 m/s 709 mmHg 94%

13 Août, Jeudi

Heure Température Précipitation Vent Pression Humidité
00:00 +12°C° 0 mm 2 m/s 709 mmHg 94%
01:00 +10°C° 0 mm 2 m/s 709 mmHg 94%
02:00 +11°C° 0 mm 1 m/s 709 mmHg 94%
03:00 +10°C° 0 mm 1 m/s 709 mmHg 95%
04:00 +10°C° 0 mm 1 m/s 709 mmHg 95%
05:00 +10°C° 0 mm 1 m/s 708 mmHg 95%
06:00 +11°C° 0 mm 1 m/s 709 mmHg 90%
07:00 +13°C° 0 mm 2 m/s 709 mmHg 86%
08:00 +14°C° 0 mm 2 m/s 709 mmHg 81%
09:00 +16°C° 0 mm 2 m/s 709 mmHg 75%
10:00 +18°C° 0 mm 2 m/s 710 mmHg 70%
11:00 +20°C° 0 mm 3 m/s 710 mmHg 64%
12:00 +21°C° 0 mm 3 m/s 710 mmHg 63%
13:00 +22°C° 0 mm 3 m/s 709 mmHg 61%
14:00 +24°C° 0 mm 3 m/s 709 mmHg 60%
15:00 +24°C° 0 mm 3 m/s 709 mmHg 63%
16:00 +22°C° 0 mm 3 m/s 709 mmHg 66%
17:00 +22°C° 0 mm 3 m/s 709 mmHg 69%
18:00 +20°C° 0 mm 3 m/s 708 mmHg 77%
19:00 +18°C° 0 mm 2 m/s 708 mmHg 85%
20:00 +16°C° 0 mm 1 m/s 708 mmHg 94%
21:00 +15°C° 0 mm 1 m/s 708 mmHg 94%
22:00 +15°C° 0 mm 1 m/s 708 mmHg 95%
23:00 +14°C° 0 mm 1 m/s 708 mmHg 96%

14 Août, Vendredi

Heure Température Précipitation Vent Pression Humidité
00:00 +13°C° 0 mm 1 m/s 708 mmHg 96%
01:00 +12°C° 0 mm 0 m/s 708 mmHg 96%
02:00 +11°C° 0 mm 0 m/s 707 mmHg 95%
03:00 +11°C° 0 mm 0 m/s 707 mmHg 96%
04:00 +11°C° 0 mm 0 m/s 707 mmHg 96%
05:00 +10°C° 0 mm 0 m/s 707 mmHg 96%
06:00 +12°C° 0 mm 0 m/s 707 mmHg 92%
07:00 +14°C° 0 mm 0 m/s 708 mmHg 89%
08:00 +16°C° 0 mm 0 m/s 708 mmHg 85%
09:00 +20°C° 0 mm 1 m/s 708 mmHg 75%
10:00 +22°C° 0 mm 1 m/s 709 mmHg 64%
11:00 +24°C° 0 mm 1 m/s 709 mmHg 53%
12:00 +25°C° 0 mm 1 m/s 709 mmHg 50%
13:00 +25°C° 0 mm 2 m/s 709 mmHg 48%
14:00 +26°C° 0 mm 2 m/s 709 mmHg 45%
15:00 +25°C° 0 mm 2 m/s 708 mmHg 49%
16:00 +25°C° 0 mm 2 m/s 708 mmHg 53%
17:00 +24°C° 0 mm 2 m/s 708 mmHg 57%
18:00 +21°C° 0 mm 2 m/s 708 mmHg 68%
19:00 +20°C° 0 mm 1 m/s 707 mmHg 78%
20:00 +18°C° 0 mm 1 m/s 707 mmHg 89%
21:00 +16°C° 0 mm 1 m/s 707 mmHg 89%
22:00 +16°C° 0 mm 1 m/s 707 mmHg 90%
23:00 +15°C° 0 mm 1 m/s 707 mmHg 91%
Voir plus